Regional Weather Roundup
Issued by NWS Charleston, WV

Home | Current Version | Previous Version | Graphics & Text | Print | Product List | Glossary On
Versions: 1 2 3 4 5 6 7 8 9 10 11 12 13 14 15 16 17 18 19 20 21 22 23 24 25 26 27 28 29 30 31 32 33 34 35 36 37 38 39 40 41 42 43 44 45 46 47 48 49 50
524
ASUS41 KRLX 032210
RWRRLX
West Virginia Regional Weather Roundup
National Weather Service Charleston WV
600 PM EDT TUE MAY 03 2016

Note: "fair" indicates few or no clouds below 12,000 feet with no
significant weather and/or obstructions to visibility.

WVZ003-032300-
Northern Panhandle of West Virginia

CITY           SKY/WX    TMP DP  RH WIND       PRES   REMARKS
WHEELING       CLOUDY    60  43  53 N6        29.81S
$$

WVZ009-032300-
Northwest West Virginia

CITY           SKY/WX    TMP DP  RH WIND       PRES   REMARKS
PARKERSBURG    PTSUNNY  N/A N/A N/A W3        29.86S
$$

WVZ006-032300-
Western West Virginia

CITY           SKY/WX    TMP DP  RH WIND       PRES   REMARKS
HUNTINGTON     CLOUDY    61  51  70 NW5       29.85S
$$

WVZ015-032300-
West Central West Virginia

CITY           SKY/WX    TMP DP  RH WIND       PRES   REMARKS
CHARLESTON     PTSUNNY   59  51  75 NW6       29.85R
$$

WVZ022-031-032300-
North Central West Virginia

CITY           SKY/WX    TMP DP  RH WIND       PRES   REMARKS
CLARKSBURG     RAIN      58  50  75 NW8       29.81R
MORGANTOWN     CLOUDY    61  43  51 VRB6      29.81R
$$

WVZ025-035-042-045-032300-
Southern West Virginia

CITY           SKY/WX    TMP DP  RH WIND       PRES   REMARKS
BECKLEY        CLOUDY    59  49  69 NW9       29.83S
LOGAN          NOT AVBL
BLUEFIELD      CLOUDY    59  48  67 NW9G23    29.85R
LEWISBURG      CLOUDY    63  47  56 NW8G17    29.81R
$$

WVZ047-032300-
Northern Mountains of West Virginia

CITY           SKY/WX    TMP DP  RH WIND       PRES   REMARKS
ELKINS         LGT RAIN  58  51  78 NW9       29.81R
$$

WVZ052-032300-
Eastern Panhandle of West Virginia

CITY           SKY/WX    TMP DP  RH WIND       PRES   REMARKS
MARTINSBURG    CLOUDY    63  57  81 SE5       29.74R
PETERSBURG     CLOUDY    70  52  52 NW8       29.73R
$$




USA.gov is the U.S. government's official web portal to all federal, state and local government web resources and services.